Riverside, CA

1:43 PM PST on November 17, 2017 (GMT -0800)
Riverside Municipal

Weather History for KRAL - November, 2014

Change the Weather History Date:

Thursday, November 6, 2014

  Actual Average Record
Temperature  
Mean Temperature 74 °F 63 °F  
Max Temperature 92 °F 77 °F 96 °F (1894)
Min Temperature 56 °F 49 °F 31 °F (1935)
Degree Days  
Heating Degree Days 0 4  
Month to date heating degree days 19 19  
Since 1 July heating degree days 20 54  
Cooling Degree Days 9 2  
Month to date cooling degree days 17 12  
Year to date cooling degree days 2312 1741  
Growing Degree Days 24 (Base 50)    
Moisture  
Dew Point 29 °F    
Average Humidity 23    
Maximum Humidity 40    
Minimum Humidity 6    
Precipitation  
Precipitation 0.00 in 0.04 in 0.35 in (1960)
Month to date precipitation 0.26 0.20  
Year to date precipitation 2.35 10.07  
Since 1 July precipitation 0.63  
Snow  
Snow 0.00 in - - ()
Month to date snowfall 0.0  
Year to date snowfall 0.0  
Snow Depth 0.00 in    
Sea Level Pressure  
Sea Level Pressure 30.09 in    
Wind  
Wind Speed 3 mph (NE)    
Max Wind Speed 9 mph    
Max Gust Speed 12 mph    
Visibility 10 miles    
Events      
T = Trace of Precipitation, MM = Missing Value Source: NWS Daily Summary

Daily Weather History Graph

Daily Weather History Graph

Search for Another Location

Airport or City:

Trip Planner

Search our weather history database for the weather conditions in past years. The results will help you decide how hot, cold, wet, or windy it might be!

Date:

Astronomy

Nov. 06, 2014 Rise Set
Actual Time 6:13 AM PST 4:52 PM PST
Civil Twilight 5:47 AM PST 5:18 PM PST
Nautical Twilight 5:17 AM PST 5:48 PM PST
Astronomical Twilight 4:48 AM PST 6:17 PM PST
Moon 5:02 PM PST (11/6) 5:52 AM PST (11/6)
Length of Visible Light 11h 30m
Length of Day
10h 38m
Full, 100% of the Moon is Illuminated
Nov 6
Full
Nov 6
Full
Nov 14
Last Quarter
Nov 22
New
Nov 29
First Quarter

Hourly Weather History & Observations

Time (PST) Temp. Dew Point Humidity Pressure Visibility Wind Dir Wind Speed Gust Speed Precip Events Conditions
12:53 AM 63.0 °F 30.0 °F 29% 30.09 in 10.0 mi NE 6.9 mph - N/A   Clear
1:53 AM 59.0 °F 33.1 °F 38% 30.10 in 10.0 mi East 5.8 mph - N/A   Clear
2:53 AM 60.1 °F 30.9 °F 33% 30.09 in 10.0 mi ENE 8.1 mph - N/A   Clear
3:53 AM 60.1 °F 30.0 °F 32% 30.09 in 10.0 mi NE 4.6 mph - N/A   Clear
4:53 AM 59.0 °F 30.0 °F 33% 30.12 in 10.0 mi NNE 4.6 mph - N/A   Clear
5:53 AM 59.0 °F 30.9 °F 35% 30.13 in 10.0 mi Calm Calm - N/A   Clear
6:53 AM 57.9 °F 33.1 °F 39% 30.15 in 10.0 mi NE 3.5 mph - N/A   Clear
7:53 AM 64.0 °F 34.0 °F 33% 30.16 in 10.0 mi East 4.6 mph - N/A   Clear
8:53 AM 71.1 °F 35.1 °F 27% 30.15 in 10.0 mi NE 5.8 mph - N/A   Clear
8:55 AM 71.6 °F 35.6 °F 27% - 10.0 mi North - - N/A   Clear
9:53 AM 81.0 °F 28.0 °F 14% 30.14 in 10.0 mi Calm Calm - N/A   Clear
10:53 AM 86.0 °F 27.0 °F 12% 30.12 in 10.0 mi Calm Calm - N/A   Clear
11:53 AM 87.1 °F 25.0 °F 10% 30.09 in 10.0 mi NNW 4.6 mph - N/A   Clear
12:53 PM 90.0 °F 16.0 °F 7% 30.06 in 10.0 mi Calm Calm - N/A   Clear
1:53 PM 90.0 °F 21.0 °F 8% 30.05 in 10.0 mi Variable 4.6 mph - N/A   Clear
2:53 PM 91.0 °F 19.9 °F 7% 30.04 in 10.0 mi Calm Calm - N/A   Clear
3:53 PM 90.0 °F 21.0 °F 8% 30.03 in 10.0 mi Calm Calm - N/A   Clear
4:53 PM 84.0 °F 28.9 °F 14% 30.04 in 10.0 mi Calm Calm - N/A   Clear
5:53 PM 80.1 °F 28.0 °F 15% 30.06 in 10.0 mi ESE 3.5 mph - N/A   Clear
6:53 PM 75.9 °F 28.9 °F 18% 30.07 in 10.0 mi SW 4.6 mph - N/A   Clear
7:53 PM 73.9 °F 28.9 °F 19% 30.08 in 10.0 mi Calm Calm - N/A   Clear
8:53 PM 69.1 °F 33.1 °F 26% 30.09 in 10.0 mi NE 4.6 mph - N/A   Clear
9:53 PM 66.9 °F 35.1 °F 31% 30.09 in 10.0 mi NE 4.6 mph - N/A   Clear
10:53 PM 66.9 °F 33.1 °F 28% 30.08 in 10.0 mi NE 6.9 mph - N/A   Clear
11:53 PM 64.0 °F 33.1 °F 31% 30.09 in 10.0 mi ENE 3.5 mph - N/A   Clear